Wind_Speed
41 41 42 43 44 45 45 46 47 48 49 49 50 51 51 53 54 54 55 55 56 57 57 57 58 57 57 57 56 56 55 54 53 52 51 50 48 47 45 44 43 42 41 40 38 37 35 34 32 31 30 30 30 30 31 31 31 32 33 34 35 34 33 32 32 33 34 34 33 30 26 22 20 18 17 16 16 16 17 17 17 17 17 17 17 17
41 42 43 44 45 46 46 47 47 48 49 49 50 50 51 53 54 55 55 56 56 57 57 57 58 57 57 57 56 55 55 54 52 51 50 48 47 45 44 43 42 41 40 38 37 35 34 32 31 30 30 30 31 31 31 31 31 32 33 34 35 35 34 34 33 33 33 32 31 29 25 22 20 18 17 16 16 17 17 17 17 17 17 17 17 17
42 43 44 45 46 46 47 47 48 48 49 50 50 51 52 53 54 55 56 56 57 57 57 57 57 57 57 56 56 55 54 53 51 50 48 47 45 43 42 41 40 39 38 37 36 34 33 31 30 30 30 31 32 32 32 32 32 32 33 35 35 36 35 35 34 34 33 32 31 28 25 22 20 19 17 17 17 17 17 17 17 17 17 17 17 17
43 44 44 45 46 47 47 48 48 49 49 50 51 52 53 53 54 55 56 57 57 57 57 57 57 57 56 56 55 54 53 51 50 48 47 45 43 42 41 40 39 38 37 36 34 33 32 31 30 30 31 32 33 33 33 33 33 34 34 35 36 36 35 35 34 34 34 33 32 29 25 22 20 19 18 17 17 17 17 17 17 17 17 17 17 17
43 44 44 45 46 47 47 48 48 49 50 51 52 52 53 54 55 56 56 57 57 57 57 57 56 56 56 55 54 53 51 50 48 47 45 43 42 40 39 38 38 37 35 34 33 32 31 30 30 31 31 32 33 34 34 35 35 35 35 36 36 35 35 34 34 34 35 35 33 30 25 22 20 19 18 17 17 17 17 17 17 17 17 17 17 18
44 44 44 45 47 47 48 48 49 50 51 52 52 53 54 54 55 56 56 56 57 57 56 56 56 55 55 54 53 51 50 48 46 45 43 42 40 39 38 37 36 35 34 33 32 31 31 30 31 31 32 33 34 35 35 36 36 36 36 36 36 35 34 33 33 33 34 35 34 31 26 22 20 19 18 18 17 17 17 18 18 18 18 18 18 18
44 44 45 46 47 48 48 49 50 50 51 52 53 53 54 54 55 55 56 56 56 56 56 56 55 54 53 52 51 50 48 46 45 43 42 40 39 38 37 36 35 34 33 32 31 31 31 31 31 32 33 33 34 35 36 37 37 37 37 37 36 35 34 33 32 32 34 35 34 31 26 22 20 19 18 18 17 17 18 18 18 18 18 18 18 18
45 45 45 46 47 48 49 50 50 51 52 52 53 54 54 55 55 55 55 55 55 55 55 55 54 53 51 50 49 47 46 45 43 42 41 39 38 37 36 35 34 33 32 31 31 31 31 31 32 32 33 34 35 36 37 38 39 39 38 37 35 33 32 31 31 31 32 33 33 30 25 22 20 20 19 18 18 18 18 18 18 18 18 18 18 18
46 46 47 47 48 49 50 51 51 52 52 52 53 53 54 54 55 55 55 55 54 54 54 53 53 52 50 48 47 45 44 43 42 41 40 39 38 37 36 35 34 33 32 31 31 31 32 32 32 33 33 34 36 37 38 39 39 39 37 35 33 31 29 29 29 30 31 32 31 29 25 22 21 20 19 18 18 18 18 18 19 19 19 18 18 18
46 47 48 48 49 49 50 51 51 52 53 53 53 53 53 53 54 54 54 54 54 53 52 51 50 49 48 47 45 44 43 42 41 40 39 38 37 36 35 34 33 32 32 32 32 32 32 32 33 33 34 35 36 37 38 38 37 35 33 31 29 28 28 28 28 29 30 30 30 28 24 22 21 20 19 18 18 18 18 19 19 19 19 18 18 18
47 48 48 49 49 50 50 51 51 52 53 53 53 53 53 52 52 52 53 53 53 52 51 49 48 46 45 45 44 43 42 41 40 39 38 37 37 36 35 34 33 33 32 32 32 33 33 33 34 34 35 36 37 37 36 34 32 30 28 27 27 27 27 27 27 27 28 29 29 26 24 22 21 20 19 19 18 18 19 19 19 19 19 18 18 18
48 48 49 49 50 50 51 51 52 52 52 52 52 52 53 52 52 51 51 51 51 50 49 48 46 45 43 42 42 42 41 40 39 39 38 37 36 36 35 34 34 33 33 33 33 33 33 34 34 35 36 36 36 35 33 31 28 26 26 26 27 27 26 26 25 26 28 28 27 25 23 22 21 20 19 19 18 18 19 19 19 19 19 19 18 18
48 49 49 49 50 50 51 51 51 52 51 51 51 51 51 52 51 51 50 50 49 48 47 46 45 44 42 41 41 40 40 39 39 38 38 37 36 36 35 35 34 34 34 34 34 34 34 35 35 36 36 35 34 32 30 29 28 26 26 27 28 27 26 24 24 26 27 27 25 24 22 22 21 20 19 19 18 18 19 19 19 19 19 19 19 18
48 49 49 49 50 50 50 50 51 51 51 50 50 50 50 50 50 49 49 48 48 46 45 44 43 43 42 41 40 40 39 39 38 38 37 37 36 36 36 35 35 35 34 35 35 35 35 35 36 36 36 34 31 30 29 29 29 28 27 28 28 26 24 24 24 26 26 26 24 23 22 22 21 20 20 19 18 19 19 19 19 19 19 19 19 19
48 49 49 50 50 50 50 50 50 50 50 50 50 49 49 49 49 48 47 47 46 45 44 43 43 42 41 40 39 39 38 38 38 37 37 36 36 36 36 36 35 35 35 35 36 36 36 36 36 36 35 32 30 29 29 30 30 29 28 27 26 25 24 24 25 26 26 25 23 22 22 21 21 20 19 19 19 19 19 19 19 19 19 19 19 19
48 48 49 49 49 49 49 49 49 49 49 49 49 48 48 48 47 47 46 45 45 44 43 43 42 42 42 40 39 38 37 37 37 37 36 36 36 36 35 36 36 36 36 36 36 36 36 36 36 35 33 31 29 29 30 30 30 29 27 26 24 23 23 25 26 27 26 24 22 22 21 21 21 20 20 19 19 19 19 19 19 19 19 19 19 19
48 48 48 48 49 48 48 48 48 48 48 48 48 47 47 46 46 45 45 44 44 44 43 42 42 42 41 41 39 38 37 37 36 36 36 36 36 36 35 36 36 36 36 36 37 37 36 35 34 32 30 28 27 27 28 28 27 26 25 23 23 23 25 26 27 27 25 23 22 21 21 21 21 20 20 19 19 19 19 19 20 20 20 20 19 20
48 48 47 47 48 47 47 47 47 47 47 47 47 46 46 45 45 44 44 44 43 43 43 42 42 41 41 40 40 38 37 36 36 36 35 35 35 35 35 35 36 36 36 36 36 36 35 34 32 30 28 26 25 24 24 24 24 23 23 22 23 24 26 28 28 26 24 22 22 22 22 21 21 20 20 19 19 19 20 20 20 20 20 20 20 20
47 47 47 46 47 47 47 46 46 46 46 46 46 45 45 44 44 44 43 43 43 43 43 42 42 41 41 40 39 38 37 36 36 36 35 35 35 35 35 35 35 35 35 36 35 35 34 32 31 29 27 25 23 23 23 23 23 23 23 24 25 26 28 28 28 26 24 22 22 22 22 21 21 20 20 20 20 20 20 20 20 20 20 20 20 20
47 46 46 46 46 46 46 46 45 45 45 45 44 44 44 44 43 43 43 43 43 43 42 42 42 41 41 40 39 38 37 36 36 35 35 35 35 35 35 35 35 35 35 34 34 33 32 31 30 29 27 25 24 23 23 23 24 24 25 25 26 27 28 28 27 25 23 22 22 22 22 21 21 20 20 20 20 20 20 20 20 20 20 20 20 20
46 46 46 45 44 44 45 45 45 44 44 43 43 43 43 43 43 43 43 42 42 42 42 42 41 41 40 40 39 38 37 37 36 36 35 35 34 34 34 34 34 34 34 33 33 32 32 31 30 29 28 26 25 24 24 25 25 26 26 26 27 28 29 28 26 24 23 22 22 22 22 22 21 21 20 20 20 20 20 20 20 20 20 20 20 20
45 45 45 44 44 44 44 44 44 43 43 42 42 42 42 42 42 42 42 42 41 41 41 41 41 41 40 40 39 39 38 37 36 35 35 35 34 34 34 34 33 33 33 32 32 31 31 30 30 29 28 27 26 26 26 26 27 27 27 28 28 29 29 27 25 24 23 22 22 22 22 22 21 21 21 20 20 20 20 20 20 20 20 20 20 20
44 44 44 44 43 43 43 43 42 42 42 42 41 41 41 41 41 41 41 41 41 41 41 40 40 40 40 39 39 38 38 37 36 36 35 34 34 34 33 33 33 32 32 31 31 30 30 29 29 28 28 27 27 27 27 27 28 28 29 29 29 29 28 26 24 23 23 23 23 22 22 22 21 21 21 21 21 21 21 21 21 21 21 21 21 21
43 43 43 42 42 42 42 42 42 41 41 41 41 41 40 40 40 40 40 40 40 40 40 40 40 39 39 39 39 38 38 37 36 36 35 34 34 34 33 33 32 32 31 31 31 30 29 28 28 28 28 28 28 28 28 28 29 29 30 30 30 29 27 25 23 23 23 23 23 23 22 22 22 21 21 21 21 21 21 21 21 21 21 21 21 21
42 42 42 42 41 41 41 41 41 41 40 40 40 40 40 39 39 39 39 39 39 39 39 39 39 38 38 38 38 38 38 37 36 36 35 34 34 33 33 33 32 32 31 31 30 30 29 28 28 28 28 28 29 29 29 29 30 30 31 31 30 29 26 24 23 23 23 23 23 23 22 22 22 22 22 22 22 22 22 22 22 22 21 21 21 21
42 41 41 41 41 41 41 40 40 40 40 39 39 39 39 39 39 39 38 38 38 38 38 38 38 38 38 38 38 38 37 37 36 36 35 34 34 33 33 33 32 32 31 31 31 30 29 29 28 28 29 29 29 29 30 30 31 31 32 31 30 27 25 23 23 23 23 23 23 23 23 23 22 22 22 22 22 22 22 22 22 22 22 22 22 22
41 41 41 40 40 40 40 40 39 39 39 39 39 38 38 38 38 38 38 37 37 37 37 37 37 37 37 37 37 37 37 36 36 36 35 34 34 33 33 33 32 32 32 31 31 30 30 29 29 29 30 30 30 30 30 31 31 32 31 30 28 26 24 23 23 23 23 23 23 23 23 23 23 23 23 23 23 23 23 23 23 23 22 22 22 22
41 40 40 40 40 40 39 39 39 39 39 39 39 38 38 38 37 37 37 37 37 37 36 36 36 36 36 36 36 36 36 36 36 36 35 35 34 34 33 33 33 32 32 31 31 31 30 30 30 30 30 30 30 30 30 31 31 31 30 29 26 24 23 23 23 23 24 24 24 24 23 23 23 23 23 23 23 23 23 23 23 23 23 23 23 23
40 40 40 40 39 39 39 39 39 39 39 39 39 38 38 38 37 37 37 37 37 36 36 36 36 35 36 36 36 36 35 36 36 36 35 35 34 34 34 34 33 33 32 32 31 31 31 30 30 30 31 30 30 30 30 30 30 29 28 26 25 23 23 23 23 24 24 24 24 24 24 24 24 23 23 23 24 24 24 23 24 23 24 24 23 24
40 40 40 39 39 39 39 39 39 39 39 39 39 39 38 38 38 37 37 37 36 36 36 35 35 35 35 35 35 35 35 35 35 35 35 35 35 34 34 34 34 33 33 33 32 32 31 31 31 31 31 30 30 29 29 28 28 27 26 24 23 23 23 23 24 24 24 24 24 24 24 24 24 24 24 24 24 24 24 24 24 24 24 24 24 24
40 40 39 39 39 39 39 39 39 39 39 39 39 39 39 39 38 38 37 37 36 36 35 35 35 34 34 34 34 34 34 35 35 35 35 35 35 35 34 34 34 33 33 33 33 32 31 31 31 31 31 30 29 28 27 27 26 25 24 23 23 23 23 24 24 24 24 24 25 24 24 24 24 24 24 24 24 24 24 24 24 24 24 24 25 25
40 40 40 40 39 39 39 39 39 39 39 39 39 39 39 39 39 38 38 37 36 36 35 35 35 34 34 34 34 34 34 34 34 34 34 34 35 35 34 34 34 34 33 33 33 33 32 31 31 31 30 29 28 27 26 25 24 23 23 23 23 24 24 24 24 25 25 25 25 25 25 25 25 25 25 25 25 25 25 25 25 25 25 25 25 25
40 40 40 40 40 39 39 39 40 39 40 40 40 39 39 39 39 38 38 37 37 36 35 35 35 34 34 34 33 33 33 33 33 34 34 34 34 34 34 34 34 34 34 33 33 33 32 32 31 30 30 29 27 26 25 24 24 23 23 24 24 24 24 25 25 25 25 25 25 25 25 25 25 25 25 25 25 25 25 25 25 25 25 25 25 25
41 40 40 40 40 40 40 40 39 39 40 40 40 40 40 39 39 39 38 37 37 36 35 35 34 34 34 34 33 33 33 33 33 33 33 34 34 34 34 34 34 34 34 33 33 33 32 32 31 30 29 28 27 26 25 24 24 24 24 24 25 25 25 25 25 26 26 26 26 26 26 26 26 26 26 26 26 26 26 26 26 26 26 26 26 26
41 41 41 40 40 40 40 40 39 39 39 39 40 40 40 40 39 39 38 38 37 36 35 35 34 34 34 34 33 33 33 33 33 33 33 33 33 33 33 33 33 34 33 33 33 33 32 32 31 30 28 27 26 25 25 25 25 25 25 25 26 26 26 26 26 26 26 27 27 27 27 27 27 27 26 26 26 26 26 26 26 26 26 26 26 26
42 41 41 40 40 40 40 40 40 39 39 39 39 39 39 39 39 39 38 38 37 36 35 35 34 34 33 33 33 33 33 33 33 32 32 33 33 33 33 33 33 33 33 33 33 32 32 31 30 29 28 27 26 26 25 25 26 26 26 26 27 27 27 27 27 27 27 27 27 28 28 28 28 27 27 27 27 27 26 26 26 26 26 26 26 26
42 41 41 41 40 40 40 40 39 39 39 39 39 39 39 39 39 39 38 37 37 36 35 35 34 34 33 33 33 33 33 33 32 32 32 32 33 33 33 33 33 33 33 32 32 32 31 30 30 29 28 27 26 26 26 26 27 27 27 28 28 28 28 28 28 28 28 28 28 28 28 28 28 28 28 28 27 27 27 27 27 27 27 26 26 26
42 41 41 41 40 40 40 40 39 39 39 39 39 39 39 39 38 38 38 37 36 36 35 34 34 33 33 33 33 33 32 32 32 32 32 32 32 32 32 32 32 32 32 32 32 31 31 30 29 28 28 27 26 26 27 27 28 28 28 29 29 29 29 29 29 29 29 29 29 29 29 29 29 29 29 28 28 28 28 27 27 27 27 27 27 27
42 41 41 41 40 40 40 40 39 39 39 39 39 39 38 38 38 38 37 37 36 35 35 34 34 33 33 33 32 32 32 32 32 31 31 31 32 32 32 32 32 32 32 32 31 31 30 30 29 28 27 27 26 27 27 28 28 29 29 30 30 30 30 30 30 30 30 30 30 30 30 30 30 30 30 29 29 29 28 28 28 28 28 27 27 27
42 41 41 40 40 40 40 39 39 39 39 39 38 38 38 38 38 37 37 36 36 35 35 34 34 33 33 32 32 32 32 31 31 31 31 31 31 31 31 31 31 31 31 31 31 30 30 29 28 28 27 26 26 26 27 28 29 29 30 30 31 31 31 31 31 31 31 31 31 31 31 31 31 31 30 30 30 29 29 29 29 28 28 28 28 28
41 41 41 40 40 40 39 39 39 39 39 38 38 38 38 37 37 37 36 36 35 35 34 34 33 33 33 32 32 32 32 31 31 31 30 30 30 30 30 30 30 30 30 30 30 30 29 29 28 27 27 26 26 26 27 28 29 30 31 31 32 32 32 32 32 31 31 32 32 32 32 32 32 32 31 31 31 30 30 30 30 29 29 29 29 29
41 41 40 40 40 39 39 39 39 39 39 38 38 38 37 37 37 36 36 36 35 35 34 34 33 33 33 32 32 32 31 31 31 31 30 30 30 30 30 30 29 29 29 29 29 29 29 28 28 27 27 26 26 26 26 27 28 30 31 32 32 33 33 33 33 32 32 32 33 33 33 33 33 33 32 32 32 31 31 31 31 30 30 30 30 30
41 40 40 40 39 39 39 39 39 38 38 38 38 37 37 36 36 36 36 35 35 35 34 34 33 33 33 32 32 32 31 31 31 31 30 30 30 30 29 29 29 29 29 29 29 29 29 29 28 27 27 26 26 26 27 27 28 30 31 32 33 33 34 34 33 33 33 33 34 34 34 34 34 34 33 33 33 32 32 32 32 31 31 31 31 31
40 40 40 39 39 39 39 38 38 38 38 38 37 37 37 36 36 36 35 35 35 35 34 34 34 33 33 33 33 32 32 32 31 31 31 31 30 30 30 30 29 29 29 29 29 29 29 29 28 28 27 27 26 27 27 28 29 30 31 32 33 34 34 34 34 34 34 34 35 35 35 35 35 35 34 34 34 34 33 33 33 33 32 32 32 32
40 40 39 39 39 38 38 38 38 38 38 37 37 37 36 36 36 35 35 35 35 35 34 34 34 34 34 34 33 33 33 32 32 32 32 31 31 31 31 30 30 29 29 29 29 29 29 29 29 28 28 28 27 27 28 28 29 30 31 32 33 34 35 35 35 35 35 35 36 36 36 36 36 36 36 35 35 35 35 34 34 34 34 33 33 33
40 39 39 39 38 38 38 38 38 38 38 37 37 37 37 36 36 36 35 35 35 35 35 35 35 35 35 34 34 34 34 34 33 33 33 32 32 32 32 31 31 30 30 30 30 29 29 29 29 29 29 29 28 28 28 29 29 30 31 32 33 34 35 36 36 36 37 37 37 37 37 37 37 37 37 36 36 36 36 36 35 35 35 35 34 34
39 39 39 38 38 38 38 38 37 38 38 38 37 37 37 37 37 36 36 36 36 36 36 35 35 35 35 35 35 35 35 35 34 34 34 34 33 33 33 32 32 32 31 31 30 30 30 30 30 30 30 29 29 29 29 30 30 31 31 32 33 34 35 36 37 37 38 38 38 38 38 38 38 38 38 38 37 37 37 37 37 36 36 36 36 36
39 39 38 38 38 37 37 37 37 37 38 38 37 37 37 37 37 37 37 36 36 36 36 36 36 36 36 36 36 36 36 36 36 35 35 35 35 34 34 34 33 33 33 32 32 31 31 31 31 31 31 30 30 30 31 31 31 31 32 32 33 34 35 36 37 38 38 39 39 39 39 39 39 39 39 39 39 39 39 38 38 38 38 38 37 37
39 39 38 38 38 37 37 37 38 38 38 37 37 37 37 37 37 37 37 36 36 36 36 36 37 37 37 37 36 36 36 36 36 36 36 36 36 35 35 35 35 34 34 34 33 33 32 32 32 32 32 32 32 32 32 32 32 32 32 33 34 34 35 36 37 38 39 39 40 40 40 40 40 40 40 40 40 40 40 40 40 40 39 39 39 38
39 39 38 38 38 38 38 38 38 38 37 37 37 36 36 36 36 36 36 36 36 36 37 37 37 37 37 37 37 37 37 37 37 37 37 36 36 36 36 36 36 35 35 35 34 34 34 33 33 33 33 33 33 33 33 33 33 33 33 34 34 35 36 36 37 38 39 40 40 41 41 41 41 41 41 41 41 41 41 41 41 41 41 41 40 40
39 38 38 38 38 39 39 39 39 38 37 37 36 36 36 36 36 36 36 36 36 36 37 37 37 37 37 37 37 37 37 37 37 37 37 37 37 37 37 37 36 36 36 36 36 35 35 35 35 35 35 34 34 34 34 34 34 34 34 35 35 35 36 37 37 38 39 40 41 41 42 42 42 42 42 42 42 43 43 43 43 43 43 42 42 41
Wind_Direction
285 286 286 287 288 288 289 290 290 291 291 292 292 293 293 294 295 295 296 296 297 297 298 298 299 299 300 300 300 300 301 301 300 300 300 299 299 298 298 298 298 298 298 298 297 296 295 294 293 292 291 290 290 290 290 291 292 293 295 296 298 300 302 303 302 300 299 298 296 292 285 273 260 250 245 245 247 250 252 253 254 255 256 256 256 256
285 286 286 287 288 289 289 290 290 291 291 292 292 293 293 294 294 295 296 296 297 297 298 298 299 299 299 300 300 300 300 300 300 300 299 298 298 297 297 297 297 298 298 297 297 295 294 293 291 291 290 290 289 289 289 290 291 293 294 295 297 298 300 300 300 300 299 299 296 291 282 270 257 248 244 245 247 249 251 253 254 255 255 255 255 255
285 286 286 287 288 289 289 290 290 291 291 292 293 293 293 294 295 295 296 296 297 297 297 298 298 299 299 299 300 300 300 300 299 299 298 297 297 296 297 297 297 298 298 297 296 295 293 291 290 290 289 289 289 289 290 291 292 293 294 294 295 296 297 299 299 299 299 300 297 291 280 267 255 247 243 244 246 249 251 253 254 254 254 254 254 254
285 286 286 287 288 289 289 290 290 291 291 292 292 293 294 294 295 295 295 296 296 297 297 298 298 298 299 299 299 299 299 299 298 298 297 296 296 296 296 297 297 297 297 296 295 294 292 291 290 289 289 289 290 291 292 293 293 293 293 293 293 294 295 297 298 298 299 300 297 291 279 265 252 245 242 243 245 248 250 252 253 253 253 253 253 253
285 285 286 287 288 289 289 290 290 291 291 292 292 293 293 294 294 295 295 296 296 296 297 297 298 298 298 299 299 299 299 298 297 297 296 295 295 295 296 296 297 297 296 295 294 292 291 290 289 289 289 290 291 292 293 293 293 293 292 292 292 292 292 293 294 295 297 298 297 291 279 263 251 244 241 242 245 247 250 251 252 253 252 252 252 252
285 285 286 287 288 289 289 290 290 291 291 292 292 293 293 294 294 294 295 295 296 296 296 297 297 298 298 298 298 298 298 297 296 295 294 294 294 294 295 296 296 296 295 294 293 291 290 290 289 290 290 291 292 292 293 293 293 293 292 291 290 289 288 287 287 289 291 294 294 290 279 263 249 242 241 242 244 247 249 251 251 251 251 251 251 251
285 285 286 287 288 288 289 290 290 291 291 292 292 293 293 293 294 294 294 295 295 296 296 297 297 297 297 298 298 298 297 296 295 294 293 292 292 293 294 295 295 295 294 293 291 290 289 289 289 290 291 291 292 293 293 293 293 293 292 292 291 289 286 284 283 283 286 289 291 289 278 262 248 242 241 242 244 246 248 250 250 250 250 250 250 250
285 286 286 287 288 289 289 290 290 290 291 292 292 293 293 293 294 294 294 294 295 295 296 296 297 297 297 297 297 297 296 295 293 292 291 291 291 292 293 293 293 293 292 291 290 289 289 289 289 290 291 292 292 293 294 294 294 293 292 292 290 288 285 282 280 280 283 286 288 286 276 260 247 242 241 242 244 246 248 249 249 249 249 249 249 249
285 286 287 287 288 289 289 289 290 290 291 291 292 292 293 293 293 294 294 294 295 295 295 296 296 297 297 297 297 296 295 293 292 291 290 290 290 291 291 292 292 291 290 290 289 288 288 289 289 290 291 292 293 293 294 294 293 292 291 290 289 287 284 281 278 278 280 284 286 283 272 257 246 242 242 242 244 245 247 248 248 248 248 247 247 248
286 286 287 287 288 288 289 289 290 290 291 291 291 292 292 292 293 294 294 294 295 295 295 295 296 297 297 297 296 295 294 292 291 290 289 288 289 289 290 290 290 290 289 288 288 288 288 288 289 290 291 292 293 294 294 293 292 291 290 290 289 287 283 279 277 278 280 283 283 278 267 254 245 242 242 242 244 245 246 246 247 247 246 246 246 247
286 287 287 287 288 288 288 289 289 290 290 291 291 291 292 292 292 293 294 294 294 295 295 295 296 296 296 296 296 295 293 292 290 289 288 288 287 288 288 288 288 288 288 287 287 287 288 288 289 289 290 292 293 294 294 293 291 290 291 292 291 287 283 279 278 279 281 282 280 273 261 250 244 242 242 242 243 244 245 245 246 245 245 245 245 246
286 287 287 287 288 288 288 289 289 289 290 290 291 292 292 292 293 293 293 293 294 294 295 295 296 296 296 296 295 295 293 292 290 289 288 287 287 287 287 287 287 287 287 287 287 287 287 288 288 289 290 292 294 295 294 292 289 289 290 291 290 287 283 280 280 282 282 281 276 267 255 246 242 241 242 242 242 243 244 244 244 244 244 244 245 245
286 287 287 287 288 288 289 289 289 290 290 290 291 291 292 292 292 293 293 293 293 294 294 295 295 296 296 295 295 294 293 292 290 289 288 287 286 286 286 286 286 286 286 286 286 286 287 287 288 289 291 293 294 294 293 290 286 284 284 286 286 285 282 282 283 284 283 280 272 261 250 243 241 241 241 241 241 242 242 243 243 243 244 244 244 245
286 287 287 287 288 288 288 289 289 289 290 290 291 291 291 291 292 292 292 292 293 293 294 294 294 295 295 295 295 294 293 292 290 289 288 286 286 285 285 285 285 285 285 285 285 285 286 287 288 289 291 292 292 291 288 286 283 281 281 282 282 281 281 283 285 286 283 277 268 256 246 241 240 240 240 240 240 241 241 242 242 243 243 244 244 245
286 287 287 287 287 288 288 288 289 289 290 290 290 290 291 291 291 291 292 292 292 293 293 293 294 294 294 294 294 294 294 292 291 289 288 287 285 285 284 284 284 284 284 284 284 285 286 287 288 289 290 289 286 282 280 280 281 281 280 280 278 278 280 284 286 286 281 274 263 251 243 240 239 239 239 239 239 240 240 241 242 242 243 244 245 246
286 286 287 287 287 287 288 288 289 289 289 290 290 290 290 290 291 291 291 291 292 292 292 293 293 293 294 294 294 294 293 292 291 289 288 287 286 285 284 284 284 284 284 284 284 284 285 286 287 288 289 286 282 277 275 276 278 279 278 277 276 277 281 285 286 284 278 269 257 247 241 239 239 238 238 238 239 239 240 240 241 242 243 244 245 246
286 286 286 286 287 287 288 288 288 289 289 289 289 289 290 290 290 290 290 291 291 291 291 291 291 292 293 293 294 293 293 292 291 289 288 287 286 285 284 284 284 283 283 283 283 283 283 284 286 287 287 285 281 278 276 275 276 276 275 274 275 279 283 286 286 282 275 264 253 244 239 238 238 238 238 237 238 238 239 240 241 242 244 245 246 247
285 285 286 286 286 287 287 288 288 288 288 289 289 289 289 289 289 290 290 290 290 290 290 290 290 290 291 292 292 293 292 291 290 289 288 287 286 285 285 284 284 283 283 282 282 282 283 285 286 286 284 282 280 278 276 275 274 273 273 273 277 281 285 286 284 279 270 259 248 241 238 237 237 237 237 237 237 238 239 240 242 243 244 245 247 248
284 285 285 285 286 286 287 287 287 288 288 288 288 289 289 289 289 290 290 290 290 290 290 289 289 289 289 290 291 291 291 291 290 289 288 288 287 286 286 285 285 284 284 283 283 283 284 285 284 282 280 277 275 274 274 273 272 272 272 275 279 282 284 284 281 275 265 254 244 239 237 236 236 236 236 237 237 238 239 240 242 243 245 246 247 249
284 284 284 285 285 286 286 287 287 287 287 288 288 288 288 289 289 289 289 290 290 289 289 289 288 288 288 289 289 290 290 290 289 289 288 288 288 288 287 286 286 285 285 284 284 284 283 282 280 278 275 273 271 271 270 270 271 271 273 276 280 282 283 282 277 270 259 249 241 237 236 236 236 236 236 237 237 238 240 241 243 244 245 247 248 249
283 283 284 284 285 285 286 286 287 287 287 288 288 288 288 289 289 289 289 289 289 289 289 288 288 287 287 287 287 288 288 288 288 288 289 289 288 288 288 287 287 286 286 286 285 284 283 281 278 276 273 271 270 269 269 270 271 272 274 277 280 282 282 279 273 264 254 245 239 236 235 235 235 235 236 237 238 239 240 242 243 245 246 247 249 250
282 283 283 284 284 285 285 286 287 287 287 288 288 288 289 289 289 290 290 290 290 289 289 288 288 287 287 286 286 287 287 287 287 287 288 288 288 288 288 288 287 287 286 286 286 285 284 282 279 276 273 272 271 270 271 271 272 274 276 278 280 281 280 275 268 258 248 241 237 236 235 235 235 235 236 237 238 240 241 243 244 245 247 248 249 251
281 282 283 284 284 285 285 286 286 287 287 288 288 288 289 289 289 290 290 290 290 290 290 289 288 288 287 286 285 285 285 285 286 286 286 287 287 288 288 288 287 286 286 286 286 285 284 282 279 276 274 272 272 272 273 273 274 276 277 279 280 280 277 271 262 252 244 239 237 236 235 235 235 235 236 237 239 240 242 243 245 246 248 249 250 251
281 282 283 284 284 285 285 286 286 287 287 288 288 289 289 289 290 290 290 291 291 291 291 290 289 288 287 286 285 284 284 284 284 284 284 285 286 287 287 287 287 286 286 285 285 284 283 281 278 275 274 273 272 273 274 275 276 277 278 279 280 278 273 266 256 246 240 237 236 236 235 235 235 236 237 238 239 241 243 244 246 247 248 250 251 252
281 282 283 283 284 285 285 286 286 287 287 288 288 289 289 290 290 291 291 291 291 292 291 291 290 288 287 286 285 284 283 283 282 282 283 284 284 285 286 286 286 285 285 285 284 283 282 280 278 275 273 272 273 273 274 276 277 278 279 279 278 274 268 259 249 242 238 236 236 236 236 236 236 236 237 239 240 242 243 245 246 248 249 250 251 252
281 282 282 283 284 284 285 285 286 287 287 288 288 289 290 290 291 291 291 292 292 292 292 291 290 289 288 287 285 284 283 282 282 281 282 282 283 284 284 285 285 285 284 284 283 282 281 279 277 275 273 273 273 274 275 276 277 278 278 277 275 270 262 252 244 239 236 236 236 236 236 236 236 237 238 240 241 243 244 246 247 248 250 251 252 253
281 282 282 283 283 284 285 285 286 287 287 288 288 289 289 290 291 291 291 292 292 292 292 292 291 291 289 288 286 284 283 282 281 281 281 281 282 283 283 283 284 284 284 283 283 282 281 279 277 275 273 273 273 274 275 277 277 277 276 274 270 264 255 246 240 237 236 236 236 236 236 237 237 238 239 240 242 244 245 246 248 249 250 252 253 254
281 281 282 283 283 284 285 286 286 287 287 288 288 289 289 290 290 291 291 292 292 292 292 292 292 291 290 289 287 286 284 283 282 281 281 281 281 281 282 282 283 283 283 283 282 281 280 278 276 275 273 273 274 274 275 276 277 276 274 271 265 257 248 241 238 236 236 236 237 237 237 237 238 239 240 241 243 244 246 247 249 250 252 253 253 254
280 281 282 282 283 284 285 286 286 287 287 288 288 289 289 289 290 290 291 291 292 292 292 292 292 292 291 290 289 287 285 283 282 282 281 281 280 281 281 281 282 282 283 282 282 281 279 278 276 275 274 273 274 274 275 276 275 274 271 266 259 250 243 239 237 236 236 237 237 237 237 238 239 240 241 242 244 245 247 248 250 251 252 253 254 255
281 281 282 282 283 284 285 285 286 286 287 287 288 288 289 289 289 289 290 290 291 291 292 292 292 292 291 291 289 288 286 284 283 282 281 280 280 280 280 281 281 282 282 281 281 279 278 277 276 274 274 273 274 275 275 275 274 271 266 260 253 246 240 238 237 237 237 237 237 238 238 239 239 241 242 243 245 247 248 249 251 252 253 254 255 256
281 281 282 282 283 283 284 285 285 286 286 287 287 287 288 288 288 288 289 289 290 290 291 291 292 292 291 291 290 289 287 285 283 282 281 279 279 279 279 280 280 280 281 280 280 279 277 276 275 274 274 273 274 275 275 274 271 267 261 254 248 242 239 238 237 237 238 238 238 238 239 239 240 242 243 245 246 248 249 251 252 253 254 255 256 256
281 282 282 282 282 283 283 284 284 285 285 286 286 286 286 287 287 287 287 288 288 289 290 290 291 291 291 291 290 289 288 286 285 283 281 280 279 278 278 279 279 279 279 279 279 278 277 275 274 274 273 273 274 275 274 271 267 262 256 249 244 240 239 238 238 238 238 238 239 239 239 240 241 242 244 245 247 249 250 251 253 254 255 256 256 257
281 282 282 282 282 282 283 283 284 284 285 285 285 285 285 285 285 286 286 286 287 288 289 290 290 291 291 291 291 290 289 288 286 284 282 280 279 278 278 278 278 278 278 278 278 277 276 274 273 273 273 273 273 273 272 269 263 257 251 245 241 239 239 239 239 239 239 239 239 239 240 241 242 243 245 246 248 249 251 252 253 254 255 256 257 257
281 281 281 281 282 282 282 283 283 283 284 284 284 284 284 284 284 285 285 285 286 286 287 288 289 290 291 291 291 291 290 289 287 286 284 282 280 279 278 278 277 277 277 277 277 276 275 274 273 272 272 272 272 271 269 266 260 254 248 243 240 239 238 239 239 239 239 239 240 240 241 242 243 244 245 247 248 250 251 252 253 254 255 256 257 257
281 281 281 281 281 282 282 282 283 283 283 283 284 284 284 284 284 284 284 284 285 285 286 287 288 289 290 291 291 291 291 290 289 287 285 283 282 280 279 278 277 277 277 276 276 275 273 273 272 271 271 272 271 269 267 263 258 252 247 243 240 239 239 239 239 239 239 239 240 240 241 242 243 244 246 247 248 250 251 252 254 254 255 256 256 257
281 281 281 281 281 281 281 282 282 282 283 283 283 283 283 283 283 283 283 283 284 285 285 286 287 288 289 290 290 291 290 290 289 288 287 285 283 281 280 279 278 277 276 276 275 274 272 271 271 270 270 271 270 268 265 261 257 252 247 243 241 240 239 239 239 239 239 240 240 240 241 242 243 244 246 247 248 250 251 252 253 254 255 255 256 256
280 280 280 280 280 280 281 281 281 282 282 283 283 283 283 283 283 283 283 283 283 284 284 285 286 286 287 288 289 289 290 290 290 289 288 286 285 283 281 280 278 277 276 275 274 273 272 270 269 269 269 269 269 267 263 260 256 252 248 245 242 241 240 240 240 240 240 240 240 241 241 242 243 244 245 247 248 249 250 252 253 254 254 255 255 256
279 279 280 280 280 280 280 280 281 281 282 282 283 283 283 283 282 282 282 282 282 283 283 284 284 285 285 286 287 288 288 289 289 289 288 287 286 284 282 280 279 278 276 275 274 272 271 269 268 268 268 268 267 266 262 259 256 252 249 247 244 242 241 241 241 241 240 241 241 241 241 242 243 244 245 246 248 249 250 251 252 253 254 254 255 255
279 279 279 279 279 279 279 280 280 281 281 282 282 282 283 282 282 282 281 281 281 282 282 282 283 283 284 285 285 286 287 287 287 287 287 287 286 285 283 281 279 278 276 275 273 272 270 269 268 267 267 267 267 265 262 259 256 253 251 248 246 244 243 242 242 241 241 241 241 242 242 242 243 244 245 246 247 248 249 250 251 252 253 254 254 254
278 278 278 279 279 279 279 279 279 280 281 281 282 282 282 282 282 282 281 281 281 281 281 281 282 282 283 283 284 285 285 286 286 286 286 286 285 284 283 281 280 278 276 274 272 271 269 268 267 267 267 267 266 265 262 260 257 255 252 250 248 246 245 244 243 242 242 242 242 242 243 243 243 244 245 246 247 248 249 250 251 252 252 253 254 254
278 278 278 278 278 278 278 278 279 280 280 281 282 282 282 282 282 281 281 281 280 280 280 281 281 281 282 282 283 283 284 285 285 285 285 285 285 284 283 282 280 278 276 274 272 270 269 268 267 266 266 266 266 265 263 261 259 256 254 251 249 248 247 245 244 244 243 243 243 244 244 244 244 245 245 246 247 248 249 250 250 251 252 252 253 253
277 277 277 277 277 277 277 278 278 279 280 281 281 281 281 281 281 281 281 280 280 280 280 280 281 281 281 282 282 283 283 284 284 285 285 285 285 284 283 282 281 279 277 274 272 270 269 268 267 266 266 265 265 265 264 262 260 258 255 253 252 250 248 247 246 245 245 245 245 245 245 245 245 245 246 246 247 248 249 249 250 251 252 252 253 253
276 276 276 276 276 276 276 277 278 279 279 280 280 281 281 281 281 280 280 280 280 280 280 280 280 281 281 281 282 282 283 283 284 284 284 284 284 284 284 283 281 280 278 276 273 271 270 268 267 267 266 265 265 265 264 262 261 259 257 255 254 252 250 249 247 246 246 246 246 246 246 246 246 246 246 247 247 248 249 249 250 251 251 252 252 253
275 275 275 275 275 275 276 277 277 278 279 279 280 280 280 280 280 280 280 280 280 280 280 280 280 280 281 281 281 282 282 282 283 283 283 284 284 284 283 283 282 281 279 277 275 273 271 270 269 268 267 266 265 264 264 263 261 260 258 257 255 254 252 250 249 248 247 247 247 247 247 247 247 247 247 247 248 248 249 249 250 250 251 252 252 253
274 274 274 274 274 275 276 276 277 278 278 279 279 279 279 279 279 279 279 279 280 280 280 280 280 280 280 281 281 281 281 281 281 282 282 283 283 283 283 283 282 282 280 279 277 275 273 271 270 269 267 266 266 265 264 263 262 261 259 258 257 255 254 252 250 249 248 248 248 248 248 248 248 248 247 248 248 248 249 249 250 250 251 251 252 252
273 273 273 274 274 275 275 276 277 278 278 278 279 279 279 278 278 278 279 279 279 279 280 280 280 280 280 280 280 280 280 280 280 280 281 281 281 282 282 282 282 281 281 280 279 277 275 273 271 270 268 267 266 266 265 264 263 262 261 260 258 257 255 254 252 250 249 249 249 249 249 249 249 248 248 248 248 249 249 249 250 250 251 251 252 252
273 273 273 273 274 274 275 276 277 278 278 279 279 279 278 278 278 278 278 278 279 279 279 279 279 280 280 280 280 280 279 279 279 279 279 279 279 280 280 280 280 280 280 280 279 278 277 275 273 271 270 268 267 266 265 264 263 263 262 261 260 258 256 255 253 252 251 250 250 250 250 250 250 249 249 249 249 249 249 250 250 250 250 251 251 252
272 272 272 273 273 274 275 276 277 278 278 279 279 279 279 278 278 278 278 278 278 278 279 279 279 279 279 279 279 279 279 279 278 278 278 278 278 278 278 278 278 279 279 278 278 278 277 276 275 273 271 270 268 267 266 265 264 263 263 262 261 259 257 256 255 253 252 251 251 251 251 251 251 251 250 250 250 250 250 250 250 250 250 251 251 251
272 272 272 272 273 274 275 276 277 277 278 279 279 279 279 278 278 278 278 278 278 278 278 278 279 279 279 278 278 278 278 278 278 278 277 277 277 276 276 276 276 277 277 277 277 277 276 276 275 274 273 271 270 268 267 265 265 264 263 262 261 260 259 257 256 255 254 253 252 252 252 252 252 252 251 251 251 250 250 250 250 251 251 251 251 251
272 272 272 272 273 274 275 276 276 277 277 278 278 278 278 279 278 278 278 278 278 278 278 278 278 278 278 278 278 278 278 278 278 278 277 277 277 276 276 276 275 275 275 275 275 275 275 274 274 274 273 273 271 270 269 267 266 265 264 263 262 261 260 258 257 256 255 254 254 253 253 253 253 253 253 252 252 251 251 251 251 251 251 251 251 251
272 272 272 272 273 274 275 275 276 276 276 276 277 278 278 278 278 278 278 278 278 278 278 279 278 279 278 278 278 278 278 278 278 277 277 277 277 276 276 275 275 275 274 274 274 273 273 273 273 272 272 272 272 271 270 269 268 266 265 264 263 262 261 260 259 258 257 256 255 255 255 254 254 254 254 253 253 252 252 252 252 252 252 252 251 252
Height
5739 5738 5737 5736 5735 5734 5733 5733 5732 5731 5729 5728 5728 5727 5725 5723 5722 5720 5719 5718 5716 5715 5713 5712 5710 5709 5708 5706 5705 5703 5702 5700 5699 5698 5696 5695 5693 5692 5691 5689 5688 5687 5686 5685 5685 5684 5683 5683 5682 5682 5681 5681 5680 5680 5679 5679 5678 5678 5677 5676 5676 5675 5674 5674 5673 5673 5672 5670 5670 5669 5669 5668 5668 5669 5669 5669 5670 5670 5671 5671 5672 5672 5673 5673 5673 5674
5737 5735 5734 5733 5733 5731 5730 5729 5729 5728 5726 5725 5724 5723 5722 5721 5719 5717 5716 5714 5713 5712 5710 5709 5707 5706 5704 5703 5702 5700 5699 5697 5696 5694 5693 5692 5690 5689 5688 5687 5686 5685 5684 5683 5682 5682 5681 5681 5680 5680 5679 5679 5678 5678 5677 5677 5676 5676 5675 5674 5674 5673 5673 5672 5671 5670 5669 5668 5668 5668 5667 5667 5667 5667 5668 5668 5668 5669 5669 5670 5670 5671 5671 5672 5672 5673
5734 5733 5731 5730 5729 5728 5727 5726 5725 5724 5723 5722 5721 5720 5719 5718 5716 5714 5713 5711 5710 5708 5707 5706 5704 5703 5701 5700 5699 5697 5696 5694 5693 5692 5690 5689 5688 5687 5685 5684 5683 5682 5681 5680 5680 5679 5679 5678 5678 5678 5677 5677 5676 5676 5675 5675 5674 5674 5673 5673 5672 5671 5671 5670 5669 5668 5667 5667 5666 5666 5665 5665 5666 5666 5666 5667 5667 5668 5668 5668 5669 5669 5670 5670 5671 5671
5731 5730 5728 5727 5726 5725 5724 5723 5722 5721 5720 5719 5718 5717 5716 5714 5713 5711 5710 5708 5707 5705 5704 5703 5701 5700 5698 5697 5696 5694 5693 5692 5690 5689 5687 5686 5685 5684 5683 5682 5681 5680 5679 5678 5678 5677 5677 5676 5676 5676 5675 5675 5674 5674 5673 5673 5672 5672 5671 5670 5670 5669 5669 5668 5667 5667 5666 5665 5665 5664 5664 5664 5664 5664 5665 5665 5666 5666 5666 5667 5668 5668 5668 5669 5669 5670
5728 5727 5725 5724 5723 5722 5721 5720 5719 5718 5717 5716 5715 5713 5712 5711 5709 5708 5706 5705 5703 5702 5701 5699 5698 5697 5695 5693 5692 5691 5690 5688 5687 5686 5684 5683 5682 5681 5680 5679 5678 5677 5677 5676 5675 5675 5674 5674 5674 5673 5673 5673 5672 5672 5671 5670 5670 5669 5669 5668 5668 5668 5667 5667 5666 5665 5664 5663 5663 5663 5663 5663 5663 5663 5663 5664 5664 5664 5665 5665 5666 5667 5667 5668 5668 5668
5724 5723 5722 5721 5720 5718 5718 5717 5716 5715 5713 5712 5711 5710 5709 5708 5706 5705 5703 5702 5700 5699 5697 5696 5695 5693 5692 5690 5689 5688 5687 5685 5684 5683 5682 5680 5679 5678 5678 5677 5676 5675 5674 5673 5673 5673 5672 5672 5672 5671 5671 5670 5670 5669 5669 5668 5668 5667 5666 5666 5666 5665 5665 5665 5664 5664 5663 5662 5661 5661 5661 5661 5661 5662 5662 5662 5663 5663 5663 5664 5665 5665 5666 5666 5667 5667
5720 5720 5719 5718 5717 5715 5714 5713 5712 5711 5710 5709 5708 5707 5706 5704 5703 5702 5700 5698 5697 5695 5694 5693 5691 5690 5689 5688 5686 5685 5683 5682 5681 5680 5679 5678 5677 5676 5675 5674 5673 5673 5672 5671 5671 5670 5670 5670 5669 5669 5668 5668 5668 5667 5666 5666 5665 5664 5664 5663 5663 5663 5662 5662 5662 5662 5661 5660 5659 5659 5659 5659 5660 5660 5661 5661 5661 5662 5662 5663 5663 5664 5664 5665 5665 5666
5717 5716 5716 5715 5714 5712 5711 5710 5709 5708 5707 5706 5705 5703 5702 5701 5699 5698 5697 5695 5694 5693 5691 5689 5688 5687 5686 5685 5683 5682 5681 5679 5678 5677 5676 5675 5674 5674 5673 5672 5671 5670 5670 5669 5668 5668 5668 5668 5667 5667 5666 5666 5665 5664 5663 5663 5662 5662 5661 5661 5660 5660 5659 5659 5659 5659 5659 5658 5658 5657 5657 5658 5658 5658 5659 5659 5660 5660 5661 5661 5662 5662 5663 5663 5664 5664
5713 5713 5712 5712 5711 5709 5708 5707 5705 5705 5704 5703 5702 5701 5699 5698 5696 5694 5693 5692 5691 5689 5688 5686 5685 5683 5682 5681 5680 5679 5678 5676 5675 5674 5673 5673 5672 5671 5670 5669 5668 5668 5667 5667 5666 5666 5665 5665 5665 5664 5664 5663 5663 5662 5661 5660 5659 5659 5658 5658 5657 5657 5657 5657 5657 5657 5657 5656 5656 5656 5656 5656 5657 5657 5658 5658 5658 5659 5659 5660 5660 5661 5661 5662 5663 5663
5710 5709 5708 5708 5707 5706 5705 5703 5702 5701 5700 5699 5698 5697 5696 5695 5693 5691 5689 5688 5687 5686 5685 5683 5682 5681 5679 5678 5677 5676 5675 5673 5672 5671 5671 5670 5669 5668 5668 5667 5666 5666 5665 5664 5664 5663 5663 5663 5662 5662 5661 5661 5660 5659 5658 5658 5657 5656 5655 5655 5655 5654 5654 5654 5654 5654 5654 5654 5654 5654 5654 5654 5655 5655 5656 5656 5657 5657 5658 5658 5659 5659 5660 5660 5661 5662
5706 5706 5705 5704 5703 5702 5702 5700 5699 5698 5697 5696 5694 5693 5692 5691 5691 5689 5686 5684 5683 5682 5681 5680 5679 5678 5677 5675 5673 5672 5671 5670 5669 5668 5668 5667 5667 5666 5665 5664 5664 5663 5663 5662 5662 5661 5660 5660 5659 5659 5658 5658 5657 5657 5656 5655 5654 5653 5653 5653 5653 5653 5652 5652 5652 5653 5653 5653 5652 5652 5652 5653 5653 5654 5654 5655 5655 5656 5656 5657 5657 5658 5658 5659 5659 5660
5703 5702 5701 5700 5699 5698 5698 5697 5695 5694 5693 5693 5691 5689 5688 5687 5687 5686 5684 5682 5680 5679 5678 5677 5675 5674 5674 5673 5671 5669 5668 5667 5666 5665 5665 5664 5664 5663 5663 5662 5661 5661 5660 5659 5659 5658 5658 5658 5657 5656 5656 5655 5655 5654 5653 5653 5652 5652 5651 5651 5651 5651 5650 5650 5650 5651 5651 5650 5650 5650 5650 5651 5652 5652 5653 5653 5653 5654 5655 5655 5656 5657 5657 5658 5658 5659
5699 5698 5698 5697 5695 5695 5694 5693 5692 5690 5690 5689 5688 5686 5684 5683 5682 5682 5681 5679 5677 5676 5675 5674 5672 5671 5670 5669 5668 5667 5665 5664 5663 5663 5662 5661 5661 5661 5660 5659 5659 5658 5658 5657 5656 5656 5655 5655 5654 5654 5653 5653 5652 5652 5651 5650 5650 5650 5650 5649 5649 5649 5648 5648 5648 5648 5648 5648 5648 5648 5648 5649 5650 5650 5651 5652 5652 5653 5653 5654 5654 5655 5656 5656 5657 5657
5695 5695 5694 5693 5692 5691 5690 5689 5688 5687 5685 5685 5684 5683 5682 5680 5679 5678 5677 5676 5674 5673 5672 5671 5670 5668 5667 5666 5665 5664 5663 5661 5660 5660 5659 5659 5658 5658 5657 5657 5656 5656 5655 5654 5653 5653 5653 5652 5651 5651 5650 5650 5650 5649 5649 5649 5648 5648 5648 5647 5647 5647 5647 5647 5647 5647 5647 5646 5646 5646 5647 5648 5648 5649 5649 5650 5650 5651 5652 5652 5653 5654 5654 5655 5655 5656
5692 5691 5690 5688 5688 5687 5686 5685 5684 5683 5682 5681 5681 5680 5678 5677 5676 5675 5674 5672 5671 5670 5669 5668 5667 5665 5664 5663 5663 5661 5660 5658 5658 5657 5657 5656 5655 5655 5655 5654 5653 5653 5653 5652 5651 5650 5650 5649 5648 5648 5648 5648 5648 5648 5647 5646 5646 5645 5645 5645 5645 5645 5645 5645 5645 5645 5644 5644 5644 5645 5645 5646 5647 5647 5648 5648 5649 5649 5650 5651 5652 5652 5653 5653 5654 5654
5688 5687 5686 5685 5684 5683 5682 5682 5681 5679 5678 5678 5677 5676 5675 5674 5673 5672 5670 5669 5668 5667 5666 5665 5663 5662 5661 5660 5659 5659 5658 5656 5655 5654 5654 5653 5653 5652 5652 5651 5650 5650 5650 5649 5648 5648 5647 5647 5646 5646 5645 5645 5644 5644 5644 5643 5643 5643 5643 5643 5643 5643 5643 5643 5643 5643 5643 5643 5643 5643 5644 5644 5645 5646 5646 5647 5648 5648 5649 5649 5650 5651 5651 5652 5652 5653
5684 5683 5682 5681 5680 5679 5678 5678 5678 5676 5675 5674 5673 5672 5672 5671 5669 5668 5667 5666 5665 5664 5663 5662 5661 5659 5658 5657 5656 5655 5655 5654 5653 5652 5651 5651 5650 5649 5649 5648 5648 5647 5647 5646 5646 5645 5645 5644 5644 5643 5643 5642 5642 5641 5641 5641 5641 5641 5641 5641 5642 5642 5641 5641 5641 5641 5641 5641 5641 5642 5642 5643 5643 5644 5645 5645 5646 5647 5648 5648 5649 5649 5650 5650 5651 5651
5680 5680 5679 5678 5677 5676 5675 5675 5674 5673 5672 5671 5670 5669 5668 5667 5666 5665 5664 5663 5662 5660 5659 5658 5657 5657 5656 5654 5653 5652 5652 5651 5650 5649 5649 5648 5647 5647 5646 5646 5645 5644 5644 5643 5643 5643 5643 5642 5641 5641 5640 5640 5639 5639 5639 5639 5639 5639 5639 5639 5639 5639 5639 5639 5639 5639 5639 5639 5639 5640 5641 5641 5642 5643 5643 5644 5644 5645 5646 5647 5647 5648 5648 5649 5649 5650
5677 5676 5675 5674 5673 5673 5672 5671 5671 5670 5669 5668 5667 5666 5664 5663 5663 5662 5661 5660 5658 5658 5656 5655 5654 5653 5653 5652 5650 5650 5649 5648 5647 5647 5646 5645 5644 5644 5643 5643 5642 5641 5641 5641 5640 5640 5640 5639 5639 5638 5638 5638 5638 5637 5637 5637 5637 5637 5637 5637 5637 5637 5637 5637 5637 5637 5637 5637 5638 5638 5639 5640 5640 5641 5642 5642 5643 5644 5644 5645 5646 5646 5647 5648 5648 5648
5673 5672 5672 5671 5671 5669 5668 5668 5667 5667 5666 5664 5663 5662 5661 5660 5659 5658 5657 5656 5655 5654 5653 5652 5651 5650 5650 5649 5648 5647 5646 5646 5645 5644 5643 5643 5642 5641 5641 5640 5639 5639 5638 5638 5638 5637 5637 5637 5636 5636 5636 5635 5635 5635 5635 5635 5635 5635 5635 5635 5635 5635 5635 5635 5635 5635 5635 5636 5636 5637 5638 5638 5639 5639 5640 5641 5642 5642 5643 5644 5644 5645 5645 5646 5647 5647
5669 5669 5668 5668 5668 5667 5665 5664 5663 5663 5662 5661 5660 5659 5658 5657 5656 5655 5654 5653 5652 5651 5650 5649 5648 5647 5647 5646 5645 5644 5643 5643 5642 5641 5641 5640 5639 5639 5638 5637 5637 5636 5636 5635 5635 5634 5634 5634 5634 5633 5633 5633 5633 5633 5633 5633 5633 5633 5633 5633 5633 5633 5633 5633 5633 5633 5633 5634 5634 5635 5636 5637 5637 5638 5638 5639 5640 5641 5642 5642 5643 5643 5644 5644 5645 5645
5667 5666 5665 5664 5664 5663 5662 5661 5660 5659 5658 5658 5657 5656 5655 5654 5653 5652 5650 5650 5649 5648 5647 5646 5645 5644 5643 5643 5642 5641 5641 5640 5639 5639 5638 5638 5637 5636 5636 5635 5634 5634 5633 5633 5632 5632 5632 5631 5631 5631 5631 5631 5631 5631 5631 5631 5631 5631 5631 5631 5631 5631 5631 5630 5630 5631 5631 5632 5633 5633 5634 5635 5636 5636 5637 5638 5638 5639 5640 5641 5641 5642 5642 5643 5643 5644
5663 5663 5661 5661 5660 5659 5659 5658 5657 5656 5655 5654 5653 5653 5652 5651 5650 5649 5648 5647 5646 5645 5643 5643 5642 5641 5640 5640 5639 5638 5638 5637 5637 5636 5636 5635 5634 5634 5633 5632 5632 5632 5631 5631 5630 5629 5629 5629 5629 5629 5629 5629 5629 5629 5629 5629 5629 5629 5629 5629 5629 5628 5628 5628 5628 5629 5629 5630 5631 5632 5633 5633 5634 5635 5635 5636 5637 5638 5638 5639 5639 5640 5641 5641 5642 5642
5660 5659 5658 5658 5657 5656 5655 5654 5653 5653 5652 5651 5650 5649 5648 5647 5646 5645 5644 5643 5643 5641 5640 5639 5638 5638 5637 5637 5636 5635 5635 5634 5634 5633 5633 5632 5632 5631 5631 5630 5629 5629 5629 5628 5628 5627 5627 5627 5627 5627 5627 5627 5627 5627 5627 5627 5627 5627 5627 5627 5627 5626 5626 5626 5627 5627 5628 5628 5629 5630 5631 5632 5632 5633 5634 5634 5635 5636 5637 5637 5638 5638 5639 5639 5640 5641
5656 5656 5655 5654 5653 5653 5652 5651 5650 5649 5648 5648 5647 5646 5645 5644 5643 5642 5641 5640 5639 5638 5637 5637 5636 5635 5634 5634 5633 5633 5632 5632 5631 5631 5630 5630 5629 5629 5628 5628 5627 5627 5627 5626 5625 5625 5625 5625 5625 5624 5624 5624 5624 5624 5624 5625 5625 5624 5624 5624 5624 5624 5624 5624 5625 5625 5626 5627 5628 5628 5629 5630 5630 5631 5632 5633 5633 5634 5635 5635 5636 5637 5637 5638 5638 5639
5653 5653 5652 5651 5650 5649 5649 5648 5647 5646 5645 5644 5644 5643 5642 5641 5640 5639 5638 5637 5637 5636 5635 5633 5632 5632 5631 5631 5630 5630 5629 5628 5628 5628 5628 5627 5627 5626 5626 5625 5624 5624 5624 5623 5623 5623 5623 5623 5622 5622 5622 5622 5622 5622 5622 5622 5622 5622 5622 5622 5622 5622 5622 5622 5623 5623 5624 5625 5626 5627 5627 5628 5629 5629 5630 5631 5632 5633 5633 5634 5634 5635 5636 5636 5637 5637
5650 5649 5648 5648 5647 5646 5645 5645 5644 5643 5642 5641 5641 5640 5639 5638 5637 5636 5635 5634 5634 5633 5632 5630 5629 5629 5628 5628 5627 5627 5626 5626 5625 5625 5625 5624 5624 5623 5623 5622 5622 5622 5622 5621 5621 5621 5620 5620 5620 5620 5619 5619 5619 5620 5620 5620 5620 5619 5619 5619 5619 5619 5620 5620 5621 5622 5623 5623 5624 5625 5625 5626 5627 5628 5628 5629 5630 5631 5631 5632 5633 5633 5634 5634 5635 5635
5646 5646 5645 5644 5644 5643 5642 5641 5641 5640 5639 5638 5638 5637 5636 5635 5634 5633 5632 5632 5631 5630 5628 5628 5627 5626 5625 5624 5624 5623 5623 5623 5622 5622 5621 5621 5621 5621 5620 5619 5619 5619 5619 5619 5618 5618 5618 5618 5618 5617 5617 5617 5617 5617 5617 5617 5617 5617 5617 5617 5617 5618 5618 5618 5619 5620 5621 5621 5622 5623 5624 5624 5625 5626 5627 5628 5628 5629 5629 5630 5631 5631 5632 5633 5633 5633
5643 5643 5642 5641 5640 5640 5639 5638 5637 5637 5636 5635 5634 5633 5633 5632 5632 5631 5629 5628 5628 5627 5626 5625 5624 5623 5622 5622 5621 5621 5620 5620 5619 5618 5618 5618 5618 5618 5617 5617 5617 5617 5617 5616 5616 5616 5616 5615 5615 5615 5615 5615 5615 5615 5615 5615 5614 5614 5614 5615 5615 5615 5616 5617 5617 5618 5619 5619 5620 5621 5622 5623 5623 5624 5625 5626 5626 5627 5628 5628 5629 5629 5630 5630 5631 5632
5640 5639 5638 5638 5637 5637 5636 5635 5634 5633 5633 5632 5631 5630 5630 5629 5628 5628 5627 5626 5625 5624 5623 5622 5621 5621 5620 5619 5618 5618 5617 5617 5616 5616 5615 5615 5615 5615 5615 5614 5614 5614 5614 5614 5613 5613 5613 5613 5613 5612 5612 5612 5612 5612 5612 5612 5612 5612 5612 5613 5613 5613 5614 5615 5616 5616 5617 5618 5618 5619 5620 5621 5622 5622 5623 5624 5624 5625 5626 5626 5627 5628 5628 5628 5629 5629
5636 5636 5635 5634 5634 5633 5633 5632 5631 5630 5630 5629 5628 5628 5627 5626 5625 5624 5623 5623 5622 5622 5620 5619 5618 5618 5617 5616 5615 5615 5614 5614 5613 5613 5613 5612 5612 5612 5612 5612 5611 5612 5612 5611 5611 5611 5611 5611 5610 5610 5610 5610 5610 5610 5610 5609 5609 5609 5610 5610 5611 5612 5612 5613 5614 5614 5615 5616 5617 5618 5618 5619 5620 5620 5621 5622 5623 5623 5624 5624 5625 5625 5626 5626 5627 5628
5633 5632 5632 5631 5630 5630 5629 5628 5628 5627 5627 5626 5625 5624 5624 5623 5622 5621 5621 5620 5619 5618 5618 5617 5616 5615 5614 5614 5613 5612 5611 5611 5610 5610 5610 5609 5609 5609 5609 5609 5609 5609 5609 5609 5608 5608 5608 5608 5608 5608 5608 5607 5607 5607 5607 5607 5607 5607 5608 5608 5609 5610 5610 5611 5612 5613 5613 5614 5615 5615 5616 5617 5618 5618 5619 5620 5621 5621 5622 5622 5623 5623 5624 5624 5625 5625
5629 5629 5628 5628 5627 5627 5626 5625 5625 5624 5623 5623 5622 5621 5621 5620 5619 5618 5618 5617 5616 5616 5615 5614 5613 5613 5612 5611 5610 5610 5609 5608 5608 5607 5607 5606 5606 5606 5606 5606 5606 5606 5606 5606 5606 5606 5606 5605 5605 5605 5605 5605 5605 5605 5605 5605 5605 5605 5606 5606 5607 5608 5608 5609 5610 5610 5611 5612 5613 5613 5614 5615 5616 5616 5617 5618 5618 5619 5620 5620 5621 5621 5622 5622 5623 5623
5626 5625 5625 5624 5624 5623 5623 5622 5621 5621 5620 5619 5619 5618 5617 5617 5616 5615 5615 5614 5613 5613 5612 5612 5611 5610 5609 5608 5608 5607 5606 5606 5605 5604 5604 5603 5603 5603 5603 5603 5603 5603 5603 5603 5603 5603 5603 5603 5603 5603 5603 5603 5603 5603 5603 5603 5603 5603 5603 5604 5605 5605 5606 5607 5608 5608 5609 5610 5611 5611 5612 5613 5613 5614 5615 5616 5616 5617 5618 5618 5619 5619 5620 5620 5621 5621
5622 5622 5621 5621 5620 5620 5619 5618 5618 5618 5617 5616 5615 5615 5614 5613 5613 5612 5612 5611 5610 5610 5609 5608 5608 5607 5606 5605 5605 5604 5604 5603 5602 5602 5601 5601 5600 5600 5601 5601 5601 5601 5600 5600 5601 5600 5600 5600 5600 5600 5600 5600 5600 5600 5600 5600 5600 5601 5602 5602 5603 5603 5604 5605 5605 5606 5607 5608 5608 5609 5610 5611 5611 5612 5613 5613 5614 5615 5615 5616 5617 5617 5618 5618 5619 5619
5619 5618 5618 5617 5617 5617 5616 5615 5615 5614 5613 5613 5612 5611 5611 5610 5609 5609 5608 5608 5607 5607 5606 5606 5605 5604 5603 5603 5602 5601 5601 5600 5599 5599 5598 5598 5598 5598 5598 5598 5598 5598 5598 5598 5598 5598 5598 5598 5598 5598 5598 5598 5598 5598 5598 5598 5598 5599 5599 5600 5601 5601 5602 5603 5603 5604 5604 5605 5606 5607 5608 5608 5609 5610 5610 5611 5612 5613 5613 5614 5614 5615 5615 5616 5617 5617
5615 5615 5614 5614 5613 5613 5613 5612 5611 5611 5610 5609 5609 5608 5608 5607 5606 5606 5605 5605 5604 5604 5603 5603 5602 5601 5601 5600 5599 5599 5598 5597 5597 5596 5596 5595 5595 5595 5595 5595 5595 5595 5595 5595 5595 5595 5595 5595 5595 5595 5595 5595 5595 5596 5596 5596 5596 5597 5597 5598 5598 5599 5600 5600 5601 5602 5602 5603 5603 5604 5605 5606 5607 5607 5608 5609 5609 5610 5611 5611 5612 5613 5613 5614 5614 5615
5612 5611 5611 5610 5610 5609 5609 5608 5608 5607 5607 5606 5605 5605 5604 5604 5603 5603 5602 5602 5601 5601 5600 5600 5599 5598 5598 5597 5597 5596 5596 5595 5594 5594 5593 5593 5593 5592 5592 5592 5592 5592 5592 5592 5593 5593 5592 5592 5592 5592 5593 5593 5593 5593 5594 5594 5594 5595 5595 5596 5596 5597 5597 5598 5598 5599 5600 5600 5601 5602 5603 5603 5604 5605 5605 5606 5607 5608 5608 5609 5609 5610 5611 5611 5612 5613
5608 5607 5607 5607 5606 5606 5605 5605 5604 5603 5603 5603 5602 5602 5601 5601 5600 5599 5599 5598 5598 5598 5597 5597 5596 5596 5595 5595 5594 5594 5593 5593 5592 5592 5591 5591 5590 5590 5590 5590 5590 5589 5589 5589 5590 5590 5590 5590 5590 5590 5590 5590 5591 5591 5591 5592 5592 5593 5593 5593 5594 5594 5595 5595 5596 5597 5597 5598 5599 5599 5600 5601 5602 5602 5603 5604 5604 5605 5606 5606 5607 5608 5608 5609 5609 5610
5604 5603 5603 5603 5602 5602 5601 5601 5600 5600 5599 5599 5598 5598 5598 5597 5597 5596 5596 5596 5595 5595 5594 5594 5593 5593 5592 5592 5592 5591 5591 5590 5590 5589 5589 5588 5588 5588 5587 5587 5587 5587 5587 5587 5587 5587 5587 5587 5587 5588 5588 5588 5588 5588 5589 5589 5590 5590 5591 5591 5592 5592 5593 5593 5593 5594 5595 5595 5596 5597 5598 5598 5599 5600 5600 5601 5602 5603 5603 5604 5604 5605 5606 5606 5607 5607
5600 5600 5599 5599 5598 5598 5597 5597 5597 5596 5596 5596 5595 5595 5594 5594 5594 5593 5593 5592 5592 5592 5591 5591 5590 5590 5589 5589 5589 5588 5588 5588 5587 5587 5587 5586 5586 5585 5585 5585 5585 5584 5584 5584 5584 5585 5585 5585 5585 5585 5585 5585 5586 5586 5586 5587 5587 5588 5588 5589 5589 5590 5590 5590 5591 5592 5592 5593 5593 5594 5595 5596 5596 5597 5598 5598 5599 5600 5601 5601 5602 5602 5603 5603 5604 5605
5596 5596 5595 5595 5594 5594 5593 5593 5593 5593 5593 5592 5592 5592 5591 5591 5590 5590 5589 5589 5589 5588 5588 5588 5588 5587 5587 5586 5586 5586 5585 5585 5585 5584 5584 5583 5583 5583 5583 5582 5582 5582 5582 5582 5582 5582 5582 5583 5583 5583 5583 5583 5583 5583 5584 5584 5585 5585 5586 5586 5587 5587 5588 5588 5588 5589 5589 5590 5591 5592 5592 5593 5594 5594 5595 5596 5597 5597 5598 5598 5599 5600 5600 5601 5601 5602
5593 5592 5592 5591 5591 5590 5590 5590 5589 5589 5589 5589 5588 5588 5588 5588 5587 5587 5586 5586 5586 5585 5585 5585 5584 5584 5584 5584 5583 5583 5583 5583 5582 5582 5581 5581 5581 5581 5580 5580 5580 5580 5580 5580 5580 5580 5580 5580 5580 5580 5580 5580 5581 5581 5581 5582 5582 5583 5583 5583 5584 5584 5585 5585 5586 5586 5587 5588 5588 5589 5590 5590 5591 5592 5593 5593 5594 5594 5595 5596 5596 5597 5598 5598 5599 5599
5588 5588 5588 5587 5587 5587 5587 5586 5586 5586 5586 5585 5585 5585 5584 5584 5584 5583 5583 5583 5583 5582 5582 5582 5582 5581 5581 5581 5581 5580 5580 5580 5579 5579 5579 5578 5578 5578 5578 5578 5578 5577 5577 5577 5577 5578 5578 5578 5578 5578 5578 5578 5578 5578 5578 5579 5579 5580 5580 5580 5581 5582 5582 5583 5583 5584 5584 5585 5585 5586 5587 5588 5588 5589 5590 5590 5591 5592 5592 5593 5593 5594 5595 5595 5596 5596
5584 5584 5584 5584 5583 5583 5583 5583 5583 5583 5582 5582 5582 5581 5581 5581 5580 5580 5580 5580 5579 5579 5579 5578 5578 5578 5578 5578 5578 5578 5577 5577 5577 5576 5576 5576 5576 5575 5575 5575 5575 5575 5575 5574 5575 5575 5575 5575 5575 5575 5575 5575 5575 5576 5576 5576 5577 5577 5577 5578 5578 5579 5579 5580 5580 5581 5582 5582 5583 5583 5584 5584 5585 5586 5587 5588 5588 5589 5589 5590 5590 5591 5592 5592 5593 5593
5581 5581 5581 5580 5580 5580 5580 5579 5579 5579 5578 5578 5578 5578 5578 5577 5577 5577 5577 5576 5576 5576 5576 5575 5575 5575 5575 5575 5575 5575 5574 5574 5574 5573 5573 5573 5573 5573 5573 5572 5572 5572 5572 5572 5572 5572 5572 5572 5572 5572 5572 5573 5573 5573 5573 5573 5574 5574 5574 5575 5575 5576 5576 5577 5578 5578 5578 5579 5580 5580 5581 5582 5582 5583 5584 5584 5585 5586 5586 5587 5587 5588 5588 5589 5590 5590
5578 5577 5577 5577 5577 5577 5576 5576 5576 5576 5575 5575 5575 5574 5574 5574 5573 5573 5573 5573 5573 5573 5572 5572 5572 5572 5572 5571 5572 5571 5571 5571 5571 5571 5570 5570 5570 5570 5570 5569 5569 5569 5569 5569 5569 5569 5569 5569 5569 5569 5570 5570 5570 5570 5570 5571 5571 5571 5572 5572 5573 5573 5573 5574 5574 5575 5575 5576 5577 5577 5578 5578 5579 5580 5581 5582 5582 5583 5583 5583 5584 5585 5585 5586 5586 5587
5574 5574 5574 5573 5573 5573 5573 5573 5573 5572 5572 5572 5571 5571 5570 5570 5570 5570 5569 5569 5569 5569 5569 5569 5568 5568 5568 5568 5568 5568 5568 5568 5568 5568 5568 5567 5567 5567 5567 5567 5566 5566 5566 5566 5566 5566 5566 5566 5566 5566 5567 5567 5567 5567 5567 5568 5568 5568 5568 5569 5569 5570 5571 5571 5571 5572 5572 5573 5573 5574 5574 5575 5576 5577 5578 5578 5579 5579 5580 5580 5581 5581 5582 5582 5583 5583
5570 5570 5570 5570 5570 5570 5570 5569 5569 5569 5568 5568 5568 5567 5567 5567 5566 5566 5566 5566 5566 5565 5565 5565 5565 5565 5565 5565 5565 5565 5565 5565 5564 5564 5564 5564 5564 5563 5563 5563 5563 5563 5563 5563 5563 5563 5563 5563 5563 5563 5563 5563 5564 5564 5564 5565 5565 5565 5565 5566 5566 5567 5567 5568 5568 5568 5569 5569 5570 5571 5571 5572 5573 5573 5574 5575 5575 5576 5577 5577 5577 5578 5578 5579 5579 5580
5566 5566 5566 5566 5566 5566 5566 5566 5566 5565 5565 5565 5564 5564 5563 5563 5563 5562 5562 5562 5562 5562 5562 5562 5561 5561 5561 5561 5561 5561 5561 5561 5561 5561 5561 5561 5560 5560 5560 5560 5560 5560 5560 5560 5560 5560 5560 5560 5560 5560 5560 5560 5560 5561 5561 5562 5562 5562 5562 5563 5563 5563 5564 5564 5565 5565 5566 5566 5567 5567 5568 5568 5569 5569 5570 5571 5572 5572 5573 5573 5574 5574 5574 5575 5576 5576
5563 5563 5563 5563 5563 5563 5563 5562 5562 5562 5561 5561 5561 5560 5560 5559 5559 5559 5559 5558 5558 5558 5558 5558 5558 5558 5557 5557 5558 5558 5558 5558 5557 5557 5558 5557 5557 5557 5557 5557 5557 5557 5557 5557 5557 5557 5557 5557 5557 5557 5557 5557 5558 5558 5558 5558 5559 5559 5559 5559 5559 5560 5560 5561 5561 5562 5562 5563 5563 5563 5564 5565 5565 5566 5567 5567 5568 5568 5569 5569 5570 5570 5571 5571 5572 5573